Lid_Strength_Index
5 2 -1 -1 -1 -1 -1 -1 -1 -0 -0 -0 -0 -1 -1 -1 -1 -1 -1 -1 -1 -1 -1 -2 -2 -1 -1 -1 -1 -1 -1 -1 -1 -1 -1 -1 -1 -1 -1 -1 -1 -1 -1
5 3 0 -0 -1 -1 -1 -1 -0 -0 -1 -1 -0 -1 -1 -1 -1 -1 -1 -1 -1 -1 -1 -2 -1 -1 -1 -1 -1 -1 -1 -1 -1 -1 -1 -1 -1 -1 -1 -1 -1 -1 -1
6 5 5 0 1 1 1 -0 -1 -1 -1 -1 -1 -1 -1 -1 -1 -1 -1 -1 -1 -1 -1 -1 -1 -1 -1 -1 -1 -1 -1 -1 -1 -1 -1 -0 -0 -1 -1 -2 -1 -1 -1
5 5 4 1 1 2 2 2 1 -1 -1 -1 -1 -1 -1 -1 -1 -1 -1 -1 -1 -1 -1 -1 -1 -1 -1 -1 -1 -1 -1 -1 -1 -1 -0 -0 -0 -1 -1 -2 -1 -1 -1
6 5 2 1 2 1 2 3 2 1 -1 -1 -1 -1 -1 -1 -1 -1 -1 -1 -1 -1 -1 -1 -1 -1 -1 -1 -1 -1 -1 -1 -1 -0 -0 -0 -0 -1 -2 -1 -1 -1 -1
7 6 3 0 2 2 1 3 4 3 2 -1 -1 -1 -1 -1 -1 -1 -1 -1 -1 -1 -1 -1 -1 -1 -1 -1 -1 -1 -1 -1 -0 -0 0 -1 -0 -1 -1 -1 -2 -1 -1
7 6 6 1 1 3 2 2 1 4 3 2 1 -1 -1 -1 -1 -1 -1 -1 -1 -1 -1 -1 -1 -1 -1 -1 -1 -1 -1 -1 -0 0 -0 -0 -0 -2 -2 -1 -1 -2 -2
7 6 5 3 1 2 2 2 3 2 4 4 3 0 -1 -1 -0 -1 -1 -1 -1 -1 -1 -1 -1 -1 -1 -1 -1 -1 -0 0 0 1 1 -0 -1 -2 -2 -1 -1 -2 -1
8 7 6 5 4 4 2 2 2 2 3 4 3 2 -0 0 -0 -0 -0 -0 -1 -1 -1 -1 -0 -0 -1 -1 -1 -0 0 0 1 0 1 -0 -1 -2 -1 -1 -1 -1 -1
8 8 8 7 6 6 7 3 2 2 1 2 3 2 2 1 1 1 1 0 -0 -0 -0 -0 -0 -0 -1 -0 -0 0 1 1 1 0 0 -0 -1 -1 -2 -1 -1 -1 -1
9 9 8 8 7 6 7 7 4 2 2 1 3 3 2 1 -0 1 1 1 -0 0 -0 -0 -0 -0 0 1 1 1 1 0 1 1 -0 0 -1 -2 -1 -1 -1 -1 -1
10 10 9 8 8 7 6 7 7 6 5 3 3 3 4 0 0 0 2 2 1 1 0 -0 0 1 2 0 0 1 -0 0 1 0 0 -0 -1 -2 -2 -2 -1 -1 -1
10 9 9 8 8 8 8 7 7 8 7 5 3 2 3 4 0 0 0 1 0 2 0 0 0 1 0 0 0 0 0 1 1 0 0 0 -1 -2 -2 -1 -2 -2 -2
10 9 9 9 8 8 7 7 7 8 8 7 5 3 2 5 1 1 0 0 1 0 0 0 0 0 0 0 0 0 1 1 1 0 1 1 -0 -2 -2 -2 -2 -1 -1
9 9 9 9 9 8 8 7 7 7 7 7 6 4 2 2 4 1 0 0 1 0 0 0 0 0 0 0 1 0 0 1 2 1 1 3 1 -1 -2 -2 -2 -2 -2
9 9 8 8 8 8 8 8 8 7 7 6 6 6 3 3 2 4 1 1 1 0 0 0 0 1 1 0 1 0 0 1 1 1 1 2 1 -0 -1 -2 -2 -2 -2
8 8 8 7 7 8 8 8 8 7 6 6 6 5 4 2 3 3 2 1 1 1 1 1 1 0 1 1 1 0 1 2 2 2 3 3 2 2 1 -0 -1 -2 -2
7 7 7 7 7 7 8 8 8 7 7 7 6 5 4 3 3 2 3 1 0 0 1 1 1 1 1 1 1 1 1 2 2 3 3 4 3 3 2 1 0 -0 -2
7 7 7 7 7 7 7 7 8 8 8 7 7 6 5 4 2 2 1 1 0 1 1 1 1 1 2 2 2 1 2 2 3 4 4 4 4 4 3 2 2 1 -1
7 6 7 7 7 7 7 7 7 8 8 7 7 6 5 4 4 5 3 2 0 1 1 1 2 1 2 2 6 9 9 7 6 5 5 5 4 4 4 4 4 4 2
6 6 7 7 7 8 9 9 9 9 8 8 8 7 6 6 6 4 3 2 1 2 2 1 2 3 3 8 10 11 11 10 9 8 6 6 5 4 4 4 4 5 4
6 6 7 7 7 7 8 9 8 8 8 8 8 7 7 6 5 4 4 2 1 2 2 2 2 4 9 6 7 11 14 12 11 10 9 6 6 5 4 4 4 5 5
7 7 6 6 7 7 8 8 9 9 8 9 9 8 8 6 6 5 3 1 1 1 2 4 4 6 9 7 8 10 14 14 13 12 11 9 6 6 6 5 6 5 5
8 8 7 7 6 6 6 8 9 10 11 9 9 9 8 7 7 7 4 1 1 1 2 3 4 5 8 8 8 11 10 11 13 15 12 11 8 7 7 8 7 7 6
8 9 8 8 7 7 6 7 8 10 10 9 9 9 8 8 7 7 6 1 1 1 2 3 4 4 5 6 8 12 12 11 12 14 14 14 12 11 9 9 9 10 8
10 9 9 9 8 8 7 7 7 8 9 10 10 9 9 8 7 7 6 1 1 1 3 4 4 5 6 6 6 9 11 12 12 12 14 13 13 13 11 10 10 11 10